• In India
  • List of Countries
  • For 7 days
  • Water Temperature
  • Satellite Maps
  • Weather Map
  • Weather Widgets
  • user-avatar
    Login

    Hourly Weather Kotfin

    Today, 20 October, Saturday

    Time Temperature Precipitation Wind Pressure Humidity
    00:00 +9°C° 0 mm 1 mps 745 mmHg 87%
    01:00 +9°C° 0 mm 1 mps 745 mmHg 89%
    02:00 +8°C° 0 mm 1 mps 745 mmHg 89%
    03:00 +8°C° 0 mm 1 mps 745 mmHg 88%
    04:00 +8°C° 0 mm 1 mps 745 mmHg 88%
    05:00 +8°C° 0 mm 1 mps 745 mmHg 86%
    06:00 +9°C° 0 mm 1 mps 746 mmHg 85%
    07:00 +9°C° 0 mm 1 mps 746 mmHg 80%
    08:00 +10°C° 0 mm 1 mps 746 mmHg 77%
    09:00 +11°C° 0 mm 1 mps 746 mmHg 73%
    10:00 +12°C° 0 mm 1 mps 746 mmHg 70%
    11:00 +12°C° 0.2 mm 1 mps 746 mmHg 73%
    12:00 +11°C° 0.2 mm 1 mps 745 mmHg 77%
    13:00 +10°C° 0.2 mm 2 mps 745 mmHg 80%
    14:00 +10°C° 0.3 mm 2 mps 745 mmHg 82%
    15:00 +10°C° 0.3 mm 2 mps 745 mmHg 84%
    16:00 +10°C° 0.3 mm 2 mps 745 mmHg 86%
    17:00 +9°C° 0.2 mm 2 mps 745 mmHg 84%
    18:00 +9°C° 0.2 mm 3 mps 745 mmHg 82%
    19:00 +9°C° 0.2 mm 3 mps 745 mmHg 80%
    20:00 +9°C° 0.2 mm 3 mps 745 mmHg 81%
    21:00 +8°C° 0.2 mm 3 mps 745 mmHg 82%
    22:00 +8°C° 0.2 mm 3 mps 745 mmHg 84%
    23:00 +7°C° 0.2 mm 3 mps 746 mmHg 85%

    Tomorrow, 21 October, Sunday

    Time Temperature Precipitation Wind Pressure Humidity
    00:00 +7°C° 0.2 mm 3 mps 746 mmHg 87%
    01:00 +7°C° 0.2 mm 3 mps 746 mmHg 89%
    02:00 +5°C° 0 mm 3 mps 746 mmHg 90%
    03:00 +5°C° 0 mm 3 mps 746 mmHg 91%
    04:00 +5°C° 0 mm 3 mps 746 mmHg 92%
    05:00 +6°C° 0 mm 2 mps 746 mmHg 91%
    06:00 +6°C° 0 mm 2 mps 746 mmHg 91%
    07:00 +5°C° 0 mm 2 mps 747 mmHg 91%
    08:00 +7°C° 0 mm 2 mps 747 mmHg 84%
    09:00 +8°C° 0 mm 2 mps 748 mmHg 77%
    10:00 +10°C° 0 mm 2 mps 748 mmHg 69%
    11:00 +10°C° 0 mm 2 mps 748 mmHg 65%
    12:00 +12°C° 0 mm 2 mps 748 mmHg 61%
    13:00 +13°C° 0 mm 2 mps 748 mmHg 57%
    14:00 +12°C° 0 mm 2 mps 748 mmHg 59%
    15:00 +12°C° 0 mm 2 mps 747 mmHg 61%
    16:00 +11°C° 0 mm 1 mps 747 mmHg 63%
    17:00 +10°C° 0 mm 1 mps 748 mmHg 66%
    18:00 +9°C° 0 mm 1 mps 748 mmHg 70%
    19:00 +8°C° 0 mm 1 mps 748 mmHg 73%
    20:00 +8°C° 0 mm 1 mps 748 mmHg 75%
    21:00 +6°C° 0 mm 0 mps 748 mmHg 76%
    22:00 +6°C° 0 mm 0 mps 748 mmHg 77%
    23:00 +6°C° 0 mm 0 mps 748 mmHg 79%

    Day after tomorrow, 22 October, Monday

    Time Temperature Precipitation Wind Pressure Humidity
    00:00 +5°C° 0 mm 0 mps 748 mmHg 80%
    01:00 +5°C° 0 mm 0 mps 748 mmHg 81%
    02:00 +5°C° 0 mm 0 mps 747 mmHg 82%
    03:00 +5°C° 0 mm 0 mps 747 mmHg 83%
    04:00 +4°C° 0 mm 0 mps 747 mmHg 84%
    05:00 +5°C° 0 mm 1 mps 747 mmHg 84%
    06:00 +5°C° 0 mm 1 mps 747 mmHg 84%
    07:00 +5°C° 0 mm 1 mps 747 mmHg 84%
    08:00 +7°C° 0 mm 1 mps 747 mmHg 77%
    09:00 +9°C° 0 mm 1 mps 747 mmHg 69%
    10:00 +11°C° 0 mm 1 mps 747 mmHg 62%
    11:00 +12°C° 0 mm 1 mps 746 mmHg 58%
    12:00 +12°C° 0 mm 2 mps 746 mmHg 54%
    13:00 +13°C° 0 mm 2 mps 745 mmHg 50%
    14:00 +12°C° 0 mm 2 mps 745 mmHg 53%
    15:00 +12°C° 0 mm 2 mps 744 mmHg 56%
    16:00 +10°C° 0 mm 2 mps 744 mmHg 59%
    17:00 +9°C° 0 mm 2 mps 744 mmHg 62%
    18:00 +8°C° 0 mm 2 mps 744 mmHg 66%
    19:00 +7°C° 0 mm 2 mps 744 mmHg 69%
    20:00 +7°C° 0.2 mm 2 mps 744 mmHg 73%
    21:00 +7°C° 0.2 mm 3 mps 744 mmHg 76%
    22:00 +8°C° 0.2 mm 3 mps 744 mmHg 80%
    23:00 +6°C° 0.3 mm 4 mps 744 mmHg 80%

    23 October, Tuesday

    Time Temperature Precipitation Wind Pressure Humidity
    00:00 +6°C° 0.3 mm 4 mps 744 mmHg 81%
    01:00 +6°C° 0.3 mm 5 mps 744 mmHg 81%
    02:00 +5°C° 0 mm 5 mps 744 mmHg 82%
    03:00 +5°C° 0 mm 4 mps 744 mmHg 83%
    04:00 +4°C° 0 mm 4 mps 744 mmHg 84%
    05:00 +3°C° 0 mm 4 mps 744 mmHg 85%
    06:00 +3°C° 0 mm 4 mps 744 mmHg 85%
    07:00 +3°C° 0 mm 3 mps 744 mmHg 85%
    08:00 +4°C° 0 mm 4 mps 743 mmHg 79%
    09:00 +5°C° 0 mm 5 mps 743 mmHg 72%
    10:00 +7°C° 0 mm 5 mps 743 mmHg 66%
    11:00 +7°C° 0 mm 6 mps 742 mmHg 64%
    12:00 +7°C° 0 mm 6 mps 741 mmHg 61%
    13:00 +6°C° 0 mm 7 mps 740 mmHg 59%
    14:00 +6°C° 0.2 mm 7 mps 739 mmHg 61%
    15:00 +6°C° 0.2 mm 8 mps 738 mmHg 64%
    16:00 +5°C° 0.2 mm 8 mps 737 mmHg 66%
    17:00 +5°C° 0.7 mm 8 mps 735 mmHg 70%
    18:00 +5°C° 0.7 mm 9 mps 734 mmHg 74%
    19:00 +5°C° 0.7 mm 9 mps 733 mmHg 78%
    20:00 +5°C° 1.3 mm 10 mps 732 mmHg 80%
    21:00 +6°C° 1.3 mm 10 mps 731 mmHg 82%
    22:00 +6°C° 1.3 mm 10 mps 729 mmHg 84%
    23:00 +7°C° 1.5 mm 10 mps 728 mmHg 85%

    24 October, Wednesday

    Time Temperature Precipitation Wind Pressure Humidity
    00:00 +7°C° 1.5 mm 10 mps 727 mmHg 85%
    01:00 +8°C° 1.5 mm 9 mps 726 mmHg 86%
    02:00 +7°C° 1.3 mm 9 mps 726 mmHg 83%
    03:00 +7°C° 1.3 mm 9 mps 726 mmHg 81%
    04:00 +7°C° 1.3 mm 9 mps 726 mmHg 78%
    05:00 +6°C° 0.2 mm 9 mps 727 mmHg 76%
    06:00 +5°C° 0.2 mm 9 mps 727 mmHg 74%
    07:00 +3°C° 0.2 mm 10 mps 728 mmHg 72%
    08:00 +5°C° 0.1 mm 10 mps 729 mmHg 65%
    09:00 +5°C° 0.1 mm 10 mps 730 mmHg 57%
    10:00 +5°C° 0.1 mm 10 mps 731 mmHg 50%
    11:00 +5°C° 0 mm 10 mps 731 mmHg 48%
    12:00 +5°C° 0 mm 10 mps 731 mmHg 46%
    13:00 +5°C° 0 mm 10 mps 732 mmHg 44%
    14:00 +5°C° 0 mm 9 mps 732 mmHg 46%
    15:00 +5°C° 0 mm 8 mps 732 mmHg 47%
    16:00 +4°C° 0 mm 7 mps 733 mmHg 49%
    17:00 +4°C° 0 mm 6 mps 733 mmHg 51%
    18:00 +3°C° 0 mm 6 mps 734 mmHg 53%
    19:00 +2°C° 0 mm 6 mps 734 mmHg 55%
    20:00 +2°C° 0 mm 6 mps 734 mmHg 57%
    21:00 +2°C° 0 mm 6 mps 735 mmHg 58%
    22:00 +2°C° 0 mm 6 mps 735 mmHg 59%
    23:00 +2°C° 0 mm 6 mps 735 mmHg 60%

    25 October, Thursday

    Time Temperature Precipitation Wind Pressure Humidity
    00:00 +1°C° 0 mm 6 mps 735 mmHg 61%
    01:00 +1°C° 0 mm 6 mps 736 mmHg 62%
    02:00 +1°C° 0 mm 6 mps 736 mmHg 65%
    03:00 +1°C° 0 mm 5 mps 736 mmHg 67%
    04:00 +1°C° 0 mm 5 mps 736 mmHg 70%
    05:00 +1°C° 0 mm 5 mps 736 mmHg 71%
    06:00 +1°C° 0 mm 4 mps 736 mmHg 72%
    07:00 +3°C° 0 mm 4 mps 736 mmHg 72%
    08:00 +3°C° 0.4 mm 4 mps 735 mmHg 76%
    09:00 +3°C° 0.4 mm 4 mps 735 mmHg 79%
    10:00 +4°C° 0.4 mm 4 mps 735 mmHg 83%
    11:00 +5°C° 0.7 mm 5 mps 734 mmHg 84%
    12:00 +5°C° 0.7 mm 6 mps 734 mmHg 86%
    13:00 +8°C° 0.7 mm 7 mps 733 mmHg 88%
    14:00 +8°C° 0.1 mm 7 mps 733 mmHg 84%
    15:00 +8°C° 0.1 mm 7 mps 733 mmHg 81%
    16:00 +8°C° 0.1 mm 7 mps 733 mmHg 78%
    17:00 +7°C° 0.1 mm 8 mps 733 mmHg 79%
    18:00 +7°C° 0.1 mm 8 mps 733 mmHg 81%
    19:00 +7°C° 0.1 mm 8 mps 733 mmHg 83%
    20:00 +7°C° 0.1 mm 8 mps 733 mmHg 84%
    21:00 +7°C° 0.1 mm 8 mps 733 mmHg 84%
    22:00 +7°C° 0.1 mm 8 mps 733 mmHg 84%
    23:00 +7°C° 0.2 mm 8 mps 734 mmHg 84%
    Show more